Chatuge Observed Data For Previous 48 Hours

Caption
Day and Hour Reservoir Elevation (behind dam)* Tailwater Elevation (below dam)* Average Hourly Discharge*
3/18/2019 2 AM EDT 1,924.40 1,806.24 1,484
3/18/2019 3 AM EDT 1,924.40 1,806.24 1,482
3/18/2019 4 AM EDT 1,924.39 1,806.24 1,478
3/18/2019 5 AM EDT 1,924.38 1,806.24 1,477
3/18/2019 6 AM EDT 1,924.38 1,806.24 1,468
3/18/2019 7 AM EDT 1,924.37 1,806.24 1,473
3/18/2019 8 AM EDT 1,924.38 1,806.24 1,472
3/18/2019 9 AM EDT 1,924.39 1,806.24 1,468
3/18/2019 10 AM EDT 1,924.39 1,806.21 1,470
3/18/2019 11 AM EDT 1,924.40 1,806.16 1,478
3/18/2019 12 PM EDT 1,924.40 1,806.22 1,485
3/18/2019 1 PM EDT 1,924.39 1,806.24 1,479
3/18/2019 2 PM EDT 1,924.38 1,806.22 1,473
3/18/2019 3 PM EDT 1,924.38 1,806.20 1,467
3/18/2019 4 PM EDT 1,924.37 1,806.22 1,466
3/18/2019 5 PM EDT 1,924.36 1,806.23 1,466
3/18/2019 6 PM EDT 1,924.35 1,806.21 1,462
3/18/2019 7 PM EDT 1,924.35 1,806.17 1,455
3/18/2019 8 PM EDT 1,924.34 1,806.09 1,460
3/18/2019 9 PM EDT 1,924.34 1,806.18 1,450
3/18/2019 10 PM EDT 1,924.33 1,806.18 1,451
3/18/2019 11 PM EDT 1,924.33 1,806.18 1,443
3/19/2019 12 AM EDT 1,924.32 1,806.18 1,442
3/19/2019 1 AM EDT 1,924.32 1,806.14 1,442
3/19/2019 2 AM EDT 1,924.31 1,806.14 1,443
3/19/2019 3 AM EDT 1,924.31 1,806.15 1,441
3/19/2019 4 AM EDT 1,924.31 1,806.19 1,446
3/19/2019 5 AM EDT 1,924.30 1,806.18 1,433
3/19/2019 6 AM EDT 1,924.29 1,806.13 1,427
3/19/2019 7 AM EDT 1,924.29 1,806.15 1,429
3/19/2019 8 AM EDT 1,924.28 1,806.17 1,427
3/19/2019 9 AM EDT 1,924.28 1,806.16 1,420
3/19/2019 10 AM EDT 1,924.27 1,806.09 1,416
3/19/2019 11 AM EDT 1,924.26 1,806.15 1,415
3/19/2019 12 PM EDT 1,924.26 1,806.07 1,414
3/19/2019 1 PM EDT 1,924.25 1,806.13 1,426
3/19/2019 2 PM EDT 1,924.24 1,806.14 1,419
3/19/2019 3 PM EDT 1,924.24 1,806.09 1,418
3/19/2019 4 PM EDT 1,924.23 1,806.10 1,416
3/19/2019 5 PM EDT 1,924.23 1,806.15 1,418
3/19/2019 6 PM EDT 1,924.22 1,806.11 1,414
3/19/2019 7 PM EDT 1,924.22 1,806.11 1,412
3/19/2019 8 PM EDT 1,924.21 1,806.12 1,409
3/19/2019 9 PM EDT 1,924.21 1,806.14 1,403
3/19/2019 10 PM EDT 1,924.20 1,806.14 1,400
3/19/2019 11 PM EDT 1,924.20 1,806.12 1,397
3/20/2019 12 AM EDT 1,924.19 1,806.13 1,394
3/20/2019 1 AM EDT 1,924.18 1,806.14 1,390
3/20/2019 2 AM EDT 1,924.18 1,806.11 1,387
3/20/2019 3 AM EDT 1,924.17 1,806.16 1,387
3/20/2019 4 AM EDT 1,924.17 1,806.11 1,380
3/20/2019 5 AM EDT 1,924.16 1,806.10 1,383
3/20/2019 6 AM EDT 1,924.16 1,806.09 1,373
3/20/2019 7 AM EDT 1,924.15 1,806.07 1,362
3/20/2019 8 AM EDT 1,924.14 1,806.00 1,360
3/20/2019 9 AM EDT 1,924.14 1,806.05 1,352

Elevations are in feet above sea level. Discharges are in cubic feet per second and are reported at the end of the hour.